Weather History for KGUP - November, 2012

Change the Weather History Date:

Monday, November 12, 2012

  Actual Average Record
Temperature  
Mean Temperature 26 °F -  
Max Temperature 42 °F 52 °F 71 °F (1999)
Min Temperature 10 °F 20 °F 3 °F (2000)
Degree Days  
Heating Degree Days 39    
Moisture  
Dew Point 12 °F    
Average Humidity 60    
Maximum Humidity 84    
Minimum Humidity 32    
Precipitation  
Precipitation 0.00 in - - ()
Sea Level Pressure  
Sea Level Pressure 30.55 in    
Wind  
Wind Speed 4 mph (NE)    
Max Wind Speed 13 mph    
Max Gust Speed -    
Visibility 10 miles    
Events      
Averages and records for this station are not official NWS values.
T = Trace of Precipitation, MM = Missing Value Source: NWS Daily Summary

Daily Weather History Graph

Daily Weather History Graph

Search for Another Location

Airport or City:

Trip Planner

Search our weather history database for the weather conditions in past years. The results will help you decide how hot, cold, wet, or windy it might be!

Date:

Astronomy

Nov. 12, 2012 Rise Set
Actual Time 6:48 AM MST 5:10 PM MST
Civil Twilight 6:21 AM MST 5:37 PM MST
Nautical Twilight 5:50 AM MST 6:07 PM MST
Astronomical Twilight 5:20 AM MST 6:37 PM MST
Moon 5:19 AM MST (11/12) 4:16 PM MST (11/12)
Length of Visible Light 11h 15m
Length of Day
10h 21m
Waning Crescent, 2% of the Moon is Illuminated
Nov 12
Waning Crescent
Nov 13
New
Nov 20
First Quarter
Nov 28
Full
Dec 6
Last Quarter

Hourly Weather History & Observations

Time (MST) Temp. Windchill Dew Point Humidity Pressure Visibility Wind Dir Wind Speed Gust Speed Precip Events Conditions
12:53 AM 16.0 °F - 10.9 °F 81% 30.58 in 10.0 mi Calm Calm - N/A   Clear
1:53 AM 12.9 °F 3.8 °F 9.0 °F 84% 30.60 in 10.0 mi ENE 5.8 mph - N/A   Clear
2:53 AM 12.0 °F - 8.1 °F 84% 30.61 in 10.0 mi Calm Calm - N/A   Clear
3:53 AM 12.9 °F - 9.0 °F 84% 30.61 in 10.0 mi Calm Calm - N/A   Clear
4:53 AM 10.9 °F 2.9 °F 7.0 °F 84% 30.61 in 10.0 mi ENE 4.6 mph - N/A   Clear
5:53 AM 12.9 °F 3.8 °F 7.0 °F 77% 30.65 in 10.0 mi ENE 5.8 mph - N/A   Clear
6:53 AM 14.0 °F 8.2 °F 7.0 °F 74% 30.67 in 10.0 mi East 3.5 mph - N/A   Clear
7:53 AM 17.1 °F 7.6 °F 9.0 °F 71% 30.69 in 10.0 mi ENE 6.9 mph - N/A   Clear
8:53 AM 21.9 °F - 10.0 °F 60% 30.67 in 10.0 mi Calm Calm - N/A   Clear
9:53 AM 28.9 °F 25.2 °F 10.9 °F 47% 30.62 in 10.0 mi North 3.5 mph - N/A   Clear
10:53 AM 35.1 °F 31.0 °F 10.9 °F 37% 30.56 in 10.0 mi North 4.6 mph - N/A   Clear
11:53 AM 37.9 °F 35.5 °F 12.9 °F 36% 30.53 in 10.0 mi NNE 3.5 mph - N/A   Clear
12:53 PM 39.9 °F 35.8 °F 15.1 °F 36% 30.50 in 10.0 mi North 5.8 mph - N/A   Clear
1:53 PM 41.0 °F 34.7 °F 12.9 °F 32% 30.48 in 10.0 mi North 10.4 mph - N/A   Clear
2:53 PM 42.1 °F 36.1 °F 14.0 °F 32% 30.46 in 10.0 mi North 10.4 mph - N/A   Clear
3:53 PM 41.0 °F 34.7 °F 12.9 °F 32% 30.45 in 10.0 mi NNE 10.4 mph - N/A   Clear
4:53 PM 37.0 °F 28.9 °F 12.0 °F 36% 30.49 in 10.0 mi NNE 12.7 mph - N/A   Clear
5:53 PM 33.1 °F 26.9 °F 14.0 °F 46% 30.51 in 10.0 mi NE 6.9 mph - N/A   Clear
6:53 PM 30.9 °F 24.3 °F 14.0 °F 50% 30.52 in 10.0 mi NE 6.9 mph - N/A   Clear
7:53 PM 30.0 °F 24.1 °F 12.9 °F 49% 30.52 in 10.0 mi NNE 5.8 mph - N/A   Clear
8:53 PM 25.0 °F - 16.0 °F 69% 30.52 in 10.0 mi Calm Calm - N/A   Clear
9:53 PM 21.9 °F - 16.0 °F 78% 30.49 in 10.0 mi Calm Calm - N/A   Clear
10:53 PM 21.0 °F - 16.0 °F 81% 30.46 in 10.0 mi Calm Calm - N/A   Clear
11:53 PM 19.9 °F - 15.1 °F 81% 30.44 in 10.0 mi Calm Calm - N/A   Clear